TimeCDT,TemperatureF,Dew PointF,Humidity,Sea Level PressureIn,VisibilityMPH,Wind Direction,Wind SpeedMPH,Gust SpeedMPH,PrecipitationIn,Events,Conditions,WindDirDegrees,DateUTC
12:56 AM,60.1,53.1,78,30.05,10.0,South,4.6,-,N/A,,Clear,180,2013-04-08 05:56:00
1:56 AM,57.9,53.1,84,30.04,10.0,SSE,4.6,-,N/A,,Clear,150,2013-04-08 06:56:00
2:56 AM,54.0,52.0,93,30.02,10.0,Calm,Calm,-,N/A,,Clear,0,2013-04-08 07:56:00
3:56 AM,54.0,52.0,93,30.03,10.0,Calm,Calm,-,N/A,,Clear,0,2013-04-08 08:56:00
4:56 AM,51.1,50.0,96,30.04,9.0,Calm,Calm,-,N/A,,Clear,0,2013-04-08 09:56:00
5:04 AM,51.8,51.8,100,30.01,2.5,Calm,Calm,-,N/A,,Partly Cloudy,0,2013-04-08 10:04:00
5:25 AM,51.8,50.0,94,30.00,1.2,ESE,4.6,-,N/A,,Clear,120,2013-04-08 10:25:00
5:30 AM,51.8,51.8,100,30.00,3.0,SE,3.5,-,N/A,,Clear,140,2013-04-08 10:30:00
5:40 AM,53.6,51.8,94,30.01,3.0,SE,5.8,-,N/A,,Scattered Clouds,130,2013-04-08 10:40:00
5:43 AM,53.6,51.8,94,30.01,1.8,SE,5.8,-,N/A,,Scattered Clouds,130,2013-04-08 10:43:00
5:46 AM,53.6,51.8,94,30.01,1.0,SE,4.6,-,N/A,,Mist,130,2013-04-08 10:46:00
5:51 AM,53.6,51.8,94,30.01,0.5,SE,5.8,-,N/A,Fog,Fog,130,2013-04-08 10:51:00
5:56 AM,53.1,52.0,96,30.04,0.5,SE,5.8,-,N/A,Fog,Fog,130,2013-04-08 10:56:00
6:14 AM,53.6,51.8,94,30.02,0.5,SE,3.5,-,N/A,Fog,Fog,130,2013-04-08 11:14:00
6:46 AM,53.6,53.6,100,30.03,0.2,SE,5.8,-,N/A,Fog,Fog,130,2013-04-08 11:46:00
6:56 AM,54.0,54.0,100,30.06,0.2,SE,5.8,-,N/A,Fog,Fog,140,2013-04-08 11:56:00
7:29 AM,55.4,55.4,100,30.04,0.5,SE,3.5,-,N/A,Fog,Fog,140,2013-04-08 12:29:00
7:56 AM,57.9,57.0,97,30.07,0.5,SE,5.8,-,N/A,Fog,Fog,140,2013-04-08 12:56:00
8:37 AM,60.8,59.0,94,30.05,1.5,SE,4.6,-,N/A,,Overcast,140,2013-04-08 13:37:00
8:45 AM,60.8,59.0,94,30.05,3.0,SE,6.9,-,N/A,,Overcast,140,2013-04-08 13:45:00
8:56 AM,61.0,59.0,93,30.08,6.0,SSE,6.9,-,N/A,,Overcast,150,2013-04-08 13:56:00
9:49 AM,62.6,60.8,94,30.07,10.0,South,6.9,-,N/A,,Overcast,170,2013-04-08 14:49:00
9:56 AM,63.0,61.0,93,30.10,10.0,SE,5.8,-,N/A,,Overcast,130,2013-04-08 14:56:00
10:19 AM,66.2,60.8,83,30.07,10.0,Variable,4.6,-,N/A,,Overcast,0,2013-04-08 15:19:00
10:45 AM,69.8,60.8,73,30.07,10.0,SSE,9.2,-,N/A,,Mostly Cloudy,150,2013-04-08 15:45:00
10:56 AM,70.0,62.1,76,30.09,10.0,South,5.8,-,N/A,,Mostly Cloudy,170,2013-04-08 15:56:00
11:11 AM,71.6,62.6,73,30.07,10.0,SSE,5.8,-,N/A,,Mostly Cloudy,150,2013-04-08 16:11:00
11:56 AM,75.0,60.1,60,30.09,10.0,SSW,10.4,-,N/A,,Mostly Cloudy,200,2013-04-08 16:56:00
12:56 PM,78.1,57.9,50,30.06,10.0,South,11.5,23.0,N/A,,Scattered Clouds,170,2013-04-08 17:56:00
1:56 PM,79.0,57.9,48,30.04,10.0,South,8.1,17.3,N/A,,Mostly Cloudy,170,2013-04-08 18:56:00
2:56 PM,81.0,57.0,44,30.03,10.0,SSW,10.4,-,N/A,,Mostly Cloudy,200,2013-04-08 19:56:00
3:56 PM,80.1,57.0,45,30.01,10.0,South,9.2,-,N/A,,Mostly Cloudy,190,2013-04-08 20:56:00
4:56 PM,81.0,57.9,45,29.99,10.0,SSE,10.4,-,N/A,,Mostly Cloudy,150,2013-04-08 21:56:00
5:56 PM,80.1,57.0,45,30.00,10.0,South,10.4,-,N/A,,Mostly Cloudy,180,2013-04-08 22:56:00
6:56 PM,77.0,57.0,50,30.01,10.0,South,6.9,-,N/A,,Mostly Cloudy,180,2013-04-08 23:56:00
7:56 PM,73.9,57.0,55,30.02,10.0,South,5.8,-,N/A,,Mostly Cloudy,170,2013-04-09 00:56:00
8:56 PM,72.0,57.9,61,30.03,10.0,SSE,5.8,-,N/A,,Mostly Cloudy,160,2013-04-09 01:56:00
9:56 PM,71.1,59.0,66,30.04,10.0,SSE,6.9,-,N/A,,Mostly Cloudy,160,2013-04-09 02:56:00
10:56 PM,69.1,60.1,73,30.04,10.0,SSE,6.9,-,N/A,,Mostly Cloudy,160,2013-04-09 03:56:00
11:56 PM,68.0,61.0,78,30.02,10.0,SSE,5.8,-,N/A,,Mostly Cloudy,150,2013-04-09 04:56:00